| time (UTC) | temp F | wind direction | speed knots | gust knots | rain 1hr in | rain 24hr in | rain mn in | humidity % | barometer mb |
| 20260505011633 | 69 | 113 | 4.3 | 9.6 | 0.00 | 0.00 | 0.00 | 44 | 1003.0 |
| 20260505011133 | 69 | 347 | 3.5 | 7.8 | 0.00 | 0.00 | 0.00 | 43 | 1003.0 |
| 20260505010633 | 70 | 118 | 4.3 | 7.0 | 0.00 | 0.00 | 0.00 | 42 | 1003.4 |
| 20260505010134 | 70 | 55 | 3.5 | 9.6 | 0.00 | 0.00 | 0.00 | 40 | 1003.0 |
| 20260505005634 | 71 | 15 | 4.3 | 9.6 | 0.00 | 0.00 | 0.00 | 38 | 1002.7 |
| 20260505005133 | 72 | 323 | 2.6 | 6.1 | 0.00 | 0.00 | 0.00 | 37 | 1002.7 |
| 20260505004633 | 72 | 74 | 1.7 | 6.1 | 0.00 | 0.00 | 0.00 | 36 | 1002.7 |
| 20260505004134 | 72 | 67 | 3.5 | 6.1 | 0.00 | 0.00 | 0.00 | 36 | 1002.7 |
| 20260505003633 | 72 | 113 | 1.7 | 3.5 | 0.00 | 0.00 | 0.00 | 36 | 1002.7 |
| 20260505003133 | 72 | 84 | 0.9 | 5.2 | 0.00 | 0.00 | 0.00 | 36 | 1002.4 |
| 20260505002633 | 73 | 67 | 0.9 | 5.2 | 0.00 | 0.00 | 0.00 | 36 | 1002.4 |
| 20260505002133 | 73 | 56 | 1.7 | 7.8 | 0.00 | 0.00 | 0.00 | 36 | 1002.7 |
| 20260505001633 | 74 | 58 | 2.6 | 7.8 | 0.00 | 0.00 | 0.00 | 35 | 1002.7 |
| 20260505001133 | 76 | 316 | 2.6 | 7.0 | 0.00 | 0.00 | 0.00 | 33 | 1003.0 |
| 20260505000634 | 78 | 6 | 3.5 | 7.0 | 0.00 | 0.00 | 0.00 | 31 | 1002.7 |
| 20260505000134 | 79 | 63 | 2.6 | 7.0 | 0.00 | 0.00 | 0.00 | 29 | 1002.7 |
| 20260504235633 | 78 | 63 | 2.6 | 7.0 | 0.00 | 0.00 | 0.00 | 29 | 1002.7 |
| 20260504235134 | 78 | 119 | 3.5 | 7.0 | 0.00 | 0.00 | 0.00 | 29 | 1002.7 |
| 20260504234642 | 77 | 324 | 3.5 | 5.2 | 0.00 | 0.00 | 0.00 | 31 | 1003.0 |
| 20260504234133 | 77 | 15 | 2.6 | 6.1 | 0.00 | 0.00 | 0.00 | 31 | 1003.0 |
| 20260504233634 | 77 | 274 | 3.5 | 6.1 | 0.00 | 0.00 | 0.00 | 29 | 1003.0 |
| 20260504233133 | 78 | 246 | 2.6 | 5.2 | 0.00 | 0.00 | 0.00 | 28 | 1003.0 |
| 20260504232633 | 78 | 49 | 0.9 | 4.3 | 0.00 | 0.00 | 0.00 | 27 | 1002.7 |
| 20260504232133 | 78 | 95 | 1.7 | 7.0 | 0.00 | 0.00 | 0.00 | 26 | 1002.7 |
| 20260504231633 | 78 | 217 | 2.6 | 7.8 | 0.00 | 0.00 | 0.00 | 25 | 1002.7 |
| 20260504231134 | 77 | 60 | 5.2 | 7.8 | 0.00 | 0.00 | 0.00 | 25 | 1002.7 |
| 20260504230633 | 77 | 306 | 6.1 | 9.6 | 0.00 | 0.00 | 0.00 | 25 | 1002.4 |
| 20260504230134 | 78 | 326 | 3.5 | 7.0 | 0.00 | 0.00 | 0.00 | 24 | 1002.4 |
| 20260504225636 | 79 | 115 | 0.9 | 1.7 | 0.00 | 0.00 | 0.00 | 25 | 1002.7 |
| 20260504225133 | 79 | 87 | 0.0 | 0.9 | 0.00 | 0.00 | 0.00 | 26 | 1002.4 |
| 20260504224634 | 79 | 70 | 0.0 | 6.1 | 0.00 | 0.00 | 0.00 | 26 | 1002.4 |
| 20260504224133 | 79 | 94 | 0.9 | 6.1 | 0.00 | 0.00 | 0.00 | 25 | 1002.4 |
| 20260504223633 | 80 | 119 | 3.5 | 7.0 | 0.00 | 0.00 | 0.00 | 25 | 1002.4 |
| 20260504223134 | 80 | 136 | 2.6 | 7.0 | 0.00 | 0.00 | 0.00 | 24 | 1002.4 |
| 20260504222635 | 80 | 97 | 4.3 | 7.8 | 0.00 | 0.00 | 0.00 | 24 | 1002.4 |
| 20260504222134 | 81 | 165 | 3.5 | 7.8 | 0.00 | 0.00 | 0.00 | 24 | 1002.4 |
| 20260504221634 | 81 | 146 | 3.5 | 7.0 | 0.00 | 0.00 | 0.00 | 23 | 1002.4 |
| 20260504221139 | 81 | 83 | 2.6 | 7.0 | 0.00 | 0.00 | 0.00 | 23 | 1002.4 |
| 20260504220633 | 82 | 84 | 1.7 | 7.0 | 0.00 | 0.00 | 0.00 | 23 | 1002.4 |
| 20260504220133 | 82 | 107 | 1.7 | 6.1 | 0.00 | 0.00 | 0.00 | 23 | 1002.4 |
| 20260504215633 | 82 | 123 | 2.6 | 7.0 | 0.00 | 0.00 | 0.00 | 22 | 1002.4 |
| 20260504215133 | 83 | 114 | 0.9 | 6.1 | 0.00 | 0.00 | 0.00 | 22 | 1002.4 |
| 20260504214633 | 84 | 183 | 3.5 | 6.1 | 0.00 | 0.00 | 0.00 | 22 | 1002.7 |
| 20260504214135 | 84 | 79 | 2.6 | 6.1 | 0.00 | 0.00 | 0.00 | 21 | 1002.7 |
| 20260504213633 | 85 | 103 | 2.6 | 6.1 | 0.00 | 0.00 | 0.00 | 20 | 1002.7 |
| 20260504213134 | 86 | 122 | 2.6 | 6.1 | 0.00 | 0.00 | 0.00 | 20 | 1002.7 |
| 20260504212633 | 87 | 96 | 1.7 | 7.8 | 0.00 | 0.00 | 0.00 | 19 | 1002.7 |
| 20260504212137 | 88 | 86 | 1.7 | 7.8 | 0.00 | 0.00 | 0.00 | 19 | 1002.7 |
| 20260504211633 | 89 | 121 | 4.3 | 7.8 | 0.00 | 0.00 | 0.00 | 19 | 1002.7 |
| 20260504211135 | 89 | 132 | 3.5 | 6.1 | 0.00 | 0.00 | 0.00 | 17 | 1002.7 |
| 20260504210633 | 90 | 66 | 2.6 | 7.0 | 0.00 | 0.00 | 0.00 | 18 | 1002.7 |
| 20260504210133 | 89 | 82 | 4.3 | 7.0 | 0.00 | 0.00 | 0.00 | 18 | 1002.7 |
| 20260504205633 | 89 | 35 | 3.5 | 7.0 | 0.00 | 0.00 | 0.00 | 20 | 1003.0 |
| 20260504205134 | 89 | 111 | 2.6 | 7.0 | 0.00 | 0.00 | 0.00 | 18 | 1003.0 |
| 20260504204634 | 89 | 114 | 1.7 | 6.1 | 0.00 | 0.00 | 0.00 | 18 | 1002.7 |
| 20260504204134 | 89 | 172 | 1.7 | 7.0 | 0.00 | 0.00 | 0.00 | 19 | 1003.0 |
| 20260504203634 | 88 | 128 | 3.5 | 7.0 | 0.00 | 0.00 | 0.00 | 18 | 1003.0 |
| 20260504203133 | 88 | 135 | 4.3 | 7.0 | 0.00 | 0.00 | 0.00 | 17 | 1003.0 |
| 20260504202634 | 90 | 128 | 0.9 | 3.5 | 0.00 | 0.00 | 0.00 | 17 | 1003.0 |
| 20260504202134 | 90 | 100 | 1.7 | 4.3 | 0.00 | 0.00 | 0.00 | 17 | 1003.4 |
| 20260504201633 | 89 | 131 | 2.6 | 3.5 | 0.00 | 0.00 | 0.00 | 18 | 1003.4 |
| 20260504201133 | 88 | 75 | 1.7 | 6.1 | 0.00 | 0.00 | 0.00 | 18 | 1003.4 |
| 20260504200634 | 88 | 119 | 1.7 | 6.1 | 0.00 | 0.00 | 0.00 | 18 | 1003.4 |
| 20260504200133 | 90 | 85 | 2.6 | 6.1 | 0.00 | 0.00 | 0.00 | 18 | 1003.4 |
| 20260504195633 | 90 | 105 | 1.7 | 6.1 | 0.00 | 0.00 | 0.00 | 17 | 1003.4 |
| 20260504195134 | 89 | 120 | 2.6 | 7.8 | 0.00 | 0.00 | 0.00 | 18 | 1003.4 |
| 20260504194633 | 89 | 87 | 0.9 | 3.5 | 0.00 | 0.00 | 0.00 | 19 | 1003.4 |
| 20260504194134 | 89 | 136 | 1.7 | 4.3 | 0.00 | 0.00 | 0.00 | 18 | 1003.7 |
| 20260504193633 | 89 | 64 | 1.7 | 4.3 | 0.00 | 0.00 | 0.00 | 18 | 1003.4 |
| 20260504193133 | 89 | 151 | 2.6 | 4.3 | 0.00 | 0.00 | 0.00 | 19 | 1003.7 |
| 20260504192633 | 90 | 86 | 2.6 | 3.5 | 0.00 | 0.00 | 0.00 | 17 | 1003.7 |
| 20260504192135 | 91 | 101 | 0.9 | 2.6 | 0.00 | 0.00 | 0.00 | 17 | 1003.7 |
| 20260504191634 | 91 | 105 | 1.7 | 2.6 | 0.00 | 0.00 | 0.00 | 16 | 1003.7 |
| 20260504191133 | 91 | 77 | 1.7 | 5.2 | 0.00 | 0.00 | 0.00 | 17 | 1004.1 |
| 20260504190633 | 90 | 32 | 1.7 | 5.2 | 0.00 | 0.00 | 0.00 | 18 | 1004.1 |
| 20260504190135 | 90 | 105 | 2.6 | 5.2 | 0.00 | 0.00 | 0.00 | 18 | 1004.1 |
| 20260504185635 | 89 | 31 | 1.7 | 3.5 | 0.00 | 0.00 | 0.00 | 18 | 1004.1 |
| 20260504185133 | 87 | 82 | 0.9 | 3.5 | 0.00 | 0.00 | 0.00 | 20 | 1004.1 |
| 20260504184634 | 86 | 55 | 1.7 | 3.5 | 0.00 | 0.00 | 0.00 | 19 | 1004.4 |
| 20260504184133 | 85 | 8 | 1.7 | 3.5 | 0.00 | 0.00 | 0.00 | 21 | 1004.4 |
| 20260504183635 | 85 | 76 | 0.0 | 3.5 | 0.00 | 0.00 | 0.00 | 22 | 1004.4 |
| 20260504183134 | 85 | 233 | 0.9 | 4.3 | 0.00 | 0.00 | 0.00 | 21 | 1004.4 |
| 20260504182636 | 85 | 83 | 0.0 | 4.3 | 0.00 | 0.00 | 0.00 | 22 | 1004.4 |
| 20260504182133 | 85 | 93 | 0.0 | 1.7 | 0.00 | 0.00 | 0.00 | 22 | 1004.4 |
| 20260504181636 | 86 | 67 | 0.0 | 2.6 | 0.00 | 0.00 | 0.00 | 22 | 1004.4 |
| 20260504181136 | 86 | 161 | 0.9 | 2.6 | 0.00 | 0.00 | 0.00 | 22 | 1004.4 |
| 20260504180634 | 87 | 86 | 1.7 | 3.5 | 0.00 | 0.00 | 0.00 | 21 | 1004.7 |
| 20260504180134 | 87 | 84 | 1.7 | 3.5 | 0.00 | 0.00 | 0.00 | 20 | 1004.7 |
| 20260504175635 | 86 | 63 | 1.7 | 4.3 | 0.00 | 0.00 | 0.00 | 20 | 1004.7 |
| 20260504175134 | 87 | 278 | 1.7 | 3.5 | 0.00 | 0.00 | 0.00 | 20 | 1004.7 |
| 20260504174635 | 88 | 295 | 1.7 | 4.3 | 0.00 | 0.00 | 0.00 | 19 | 1004.7 |
| 20260504174136 | 89 | 267 | 0.9 | 4.3 | 0.00 | 0.00 | 0.00 | 20 | 1004.7 |
| 20260504173634 | 88 | 21 | 0.9 | 3.5 | 0.00 | 0.00 | 0.00 | 21 | 1004.7 |
| 20260504173135 | 86 | 151 | 0.9 | 3.5 | 0.00 | 0.00 | 0.00 | 20 | 1004.7 |
| 20260504172635 | 85 | 0 | 2.6 | 3.5 | 0.00 | 0.00 | 0.00 | 22 | 1004.7 |
| 20260504172133 | 84 | 67 | 0.0 | 3.5 | 0.00 | 0.00 | 0.00 | 23 | 1005.1 |
| 20260504171635 | 84 | 70 | 1.7 | 4.3 | 0.00 | 0.00 | 0.00 | 21 | 1005.1 |
| 20260504171134 | 85 | 291 | 1.7 | 4.3 | 0.00 | 0.00 | 0.00 | 21 | 1005.1 |
| 20260504170634 | 86 | 89 | 1.7 | 5.2 | 0.00 | 0.00 | 0.00 | 21 | 1005.1 |
| 20260504170133 | 86 | 126 | 2.6 | 5.2 | 0.00 | 0.00 | 0.00 | 22 | 1005.1 |
| 20260504160134 | 80 | 324 | 3.5 | 6.1 | 0.00 | 0.00 | 0.00 | 27 | 1005.1 |
| 20260504151133 | 72 | 320 | 3.5 | 6.1 | 0.00 | 0.00 | 0.00 | 36 | 1005.1 |
| 20260504150634 | 72 | 89 | 2.6 | 6.1 | 0.00 | 0.00 | 0.00 | 36 | 1005.1 |
| 20260504150134 | 70 | 330 | 3.5 | 7.8 | 0.00 | 0.00 | 0.00 | 38 | 1005.4 |
| 20260504141134 | 61 | 44 | 6.1 | 10.4 | 0.00 | 0.00 | 0.00 | 50 | 1005.4 |
| 20260504140637 | 60 | 294 | 5.2 | 7.8 | 0.00 | 0.00 | 0.00 | 51 | 1005.4 |
| 20260504140138 | 60 | 12 | 4.3 | 7.0 | 0.00 | 0.00 | 0.00 | 53 | 1005.4 |
| 20260504130636 | 55 | 279 | 2.6 | 5.2 | 0.00 | 0.00 | 0.00 | 62 | 1004.4 |
| 20260504130135 | 54 | 11 | 0.9 | 2.6 | 0.00 | 0.00 | 0.00 | 63 | 1004.4 |
| 20260504120133 | 49 | 42 | 0.9 | 4.3 | 0.00 | 0.00 | 0.00 | 67 | 1004.1 |
| 20260504110634 | 48 | 75 | 0.0 | 0.0 | 0.00 | 0.00 | 0.00 | 71 | 1004.1 |
| 20260504110134 | 48 | 86 | 0.0 | 0.9 | 0.00 | 0.00 | 0.00 | 70 | 1004.1 |
| 20260504100135 | 50 | 83 | 0.0 | 1.7 | 0.00 | 0.00 | 0.00 | 66 | 1004.7 |
| 20260504090133 | 52 | 309 | 0.9 | 1.7 | 0.00 | 0.00 | 0.00 | 63 | 1005.1 |
| 20260504081633 | 53 | 78 | 0.0 | 1.7 | 0.00 | 0.00 | 0.00 | 61 | 1005.1 |
| 20260504081133 | 53 | 34 | 0.9 | 2.6 | 0.00 | 0.00 | 0.00 | 62 | 1005.4 |
| 20260504080634 | 53 | 90 | 0.0 | 0.9 | 0.00 | 0.00 | 0.00 | 61 | 1005.4 |
| 20260504080134 | 53 | 10 | 0.0 | 0.9 | 0.00 | 0.00 | 0.00 | 60 | 1005.4 |
| 20260504070134 | 56 | 90 | 0.0 | 0.0 | 0.00 | 0.00 | 0.00 | 52 | 1005.4 |
| 20260504060133 | 58 | 72 | 0.0 | 0.9 | 0.00 | 0.00 | 0.00 | 48 | 1006.1 |
| 20260504050637 | 61 | 84 | 0.9 | 2.6 | 0.00 | 0.00 | 0.00 | 42 | 1006.4 |
| 20260504050134 | 61 | 80 | 0.0 | 1.7 | 0.00 | 0.00 | 0.00 | 42 | 1006.4 |
| 20260504045634 | 61 | 80 | 0.9 | 1.7 | 0.00 | 0.00 | 0.00 | 42 | 1006.4 |
| 20260504045134 | 61 | 95 | 0.0 | 0.0 | 0.00 | 0.00 | 0.00 | 42 | 1006.4 |
| 20260504044633 | 62 | 98 | 0.0 | 1.7 | 0.00 | 0.00 | 0.00 | 42 | 1006.8 |
| 20260504044136 | 62 | 132 | 0.0 | 1.7 | 0.00 | 0.00 | 0.00 | 42 | 1006.8 |
| 20260504043635 | 62 | 100 | 0.0 | 0.9 | 0.00 | 0.00 | 0.00 | 41 | 1006.8 |
| 20260504043133 | 62 | 68 | 0.0 | 1.7 | 0.00 | 0.00 | 0.00 | 41 | 1006.8 |
| 20260504042634 | 62 | 111 | 0.9 | 1.7 | 0.00 | 0.00 | 0.00 | 41 | 1006.8 |
| 20260504042134 | 63 | 110 | 0.0 | 0.9 | 0.00 | 0.00 | 0.00 | 40 | 1007.1 |
| 20260504041633 | 63 | 67 | 0.0 | 1.7 | 0.00 | 0.00 | 0.00 | 40 | 1007.1 |
| 20260504041134 | 64 | 112 | 0.9 | 1.7 | 0.00 | 0.00 | 0.00 | 39 | 1007.1 |
| 20260504040633 | 64 | 112 | 0.9 | 1.7 | 0.00 | 0.00 | 0.00 | 38 | 1007.1 |
| 20260504040136 | 64 | 87 | 0.9 | 1.7 | 0.00 | 0.00 | 0.00 | 38 | 1007.1 |
| 20260504035633 | 64 | 14 | 0.9 | 2.6 | 0.00 | 0.00 | 0.00 | 38 | 1007.1 |
| 20260504035133 | 65 | 131 | 0.9 | 3.5 | 0.00 | 0.00 | 0.00 | 37 | 1007.1 |
| 20260504034633 | 65 | 57 | 0.9 | 2.6 | 0.00 | 0.00 | 0.00 | 37 | 1007.1 |
| 20260504034134 | 65 | 101 | 0.9 | 2.6 | 0.00 | 0.00 | 0.00 | 37 | 1007.5 |
| 20260504033633 | 65 | 62 | 0.9 | 2.6 | 0.00 | 0.00 | 0.00 | 37 | 1007.1 |
| 20260504033134 | 65 | 78 | 1.7 | 3.5 | 0.00 | 0.00 | 0.00 | 37 | 1007.1 |
| 20260504032633 | 65 | 83 | 1.7 | 2.6 | 0.00 | 0.00 | 0.00 | 37 | 1007.1 |
| 20260504032134 | 65 | 78 | 0.9 | 2.6 | 0.00 | 0.00 | 0.00 | 36 | 1007.5 |
| 20260504031633 | 65 | 61 | 0.9 | 2.6 | 0.00 | 0.00 | 0.00 | 36 | 1007.5 |
| 20260504031134 | 66 | 83 | 0.9 | 2.6 | 0.00 | 0.00 | 0.00 | 36 | 1007.5 |
| 20260504030633 | 66 | 79 | 1.7 | 3.5 | 0.00 | 0.00 | 0.00 | 36 | 1007.5 |
| 20260504030133 | 66 | 95 | 1.7 | 2.6 | 0.00 | 0.00 | 0.00 | 36 | 1007.5 |
| 20260504025633 | 66 | 79 | 1.7 | 2.6 | 0.00 | 0.00 | 0.00 | 36 | 1007.5 |
| 20260504025133 | 66 | 83 | 0.9 | 2.6 | 0.00 | 0.00 | 0.00 | 36 | 1007.5 |
| 20260504024633 | 66 | 45 | 1.7 | 3.5 | 0.00 | 0.00 | 0.00 | 36 | 1007.5 |
| 20260504024134 | 66 | 60 | 1.7 | 5.2 | 0.00 | 0.00 | 0.00 | 36 | 1007.5 |
| 20260504023634 | 66 | 100 | 2.6 | 5.2 | 0.00 | 0.00 | 0.00 | 36 | 1007.5 |
| 20260504023134 | 66 | 86 | 0.9 | 2.6 | 0.00 | 0.00 | 0.00 | 36 | 1007.5 |
| 20260504022634 | 67 | 95 | 0.9 | 3.5 | 0.00 | 0.00 | 0.00 | 35 | 1007.5 |
| 20260504022133 | 67 | 83 | 0.9 | 2.6 | 0.00 | 0.00 | 0.00 | 35 | 1007.5 |
| 20260504021634 | 67 | 113 | 1.7 | 2.6 | 0.00 | 0.00 | 0.00 | 35 | 1007.5 |
| 20260504021133 | 67 | 48 | 0.9 | 2.6 | 0.00 | 0.00 | 0.00 | 34 | 1007.5 |
| 20260504020633 | 68 | 88 | 0.9 | 2.6 | 0.00 | 0.00 | 0.00 | 34 | 1007.5 |
| 20260504020133 | 68 | 51 | 0.9 | 3.5 | 0.00 | 0.00 | 0.00 | 33 | 1007.5 |
| 20260504015634 | 69 | 81 | 1.7 | 3.5 | 0.00 | 0.00 | 0.00 | 33 | 1007.5 |
| 20260504015133 | 69 | 88 | 1.7 | 3.5 | 0.00 | 0.00 | 0.00 | 32 | 1007.5 |
| 20260504014633 | 70 | 75 | 1.7 | 3.5 | 0.00 | 0.00 | 0.00 | 31 | 1007.5 |
| 20260504014133 | 70 | 84 | 2.6 | 4.3 | 0.00 | 0.00 | 0.00 | 31 | 1007.1 |
| 20260504013641 | 71 | 67 | 1.7 | 3.5 | 0.00 | 0.00 | 0.00 | 30 | 1007.1 |
| 20260504013134 | 71 | 72 | 1.7 | 3.5 | 0.00 | 0.00 | 0.00 | 30 | 1007.1 |
| 20260504012633 | 72 | 57 | 1.7 | 3.5 | 0.00 | 0.00 | 0.00 | 29 | 1007.1 |
| 20260504012134 | 72 | 59 | 0.9 | 4.3 | 0.00 | 0.00 | 0.00 | 28 | 1007.1 |